Regional Weather Roundup
Issued by NWS Little Rock, AR

Home | Current Version | Previous Version | Text Only | Print | Product List | Glossary Off
Versions: 1 2 3 4 5 6 7 8 9 10 11 12 13 14 15 16 17 18 19 20 21 22 23 24 25 26 27 28 29 30 31 32 33 34 35 36 37 38 39 40 41 42 43 44 45 46 47 48 49 50

000
ASUS44 KLZK 040505
RWRLZK

WEATHER ROUNDUP FOR ARKANSAS
NATIONAL WEATHER SERVICE LITTLE ROCK AR
1200 AM CDT FRI SEP 04 2015

NOTE: "FAIR" INDICATES FEW OR NO CLOUDS BELOW 12,000 FEET WITH NO
SIGNIFICANT WEATHER AND/OR OBSTRUCTIONS TO VISIBILITY.

ARZ001-003-010-029-040600-
NORTHWEST ARKANSAS

CITY           SKY/WX    TMP DP  RH WIND       PRES   REMARKS
FAYETTEVILLE   CLEAR     68  68 100 CALM      29.98R FOG
FORT SMITH     CLEAR     77  69  76 CALM      29.92S
HARRISON       CLEAR     72  69  90 CALM      30.00R
BENTONVILLE    CLEAR     75  64  69 SE5       29.98S
ROGERS         CLEAR     74  71  91 E6        29.99S
SILOAM SPGS    CLEAR     73  64  73 E6        29.95S
HIGHFILL       CLEAR     74  68  81 CALM      29.97S
$$

ARZ004-005-016-040600-
NORTH CENTRAL ARKANSAS

CITY           SKY/WX    TMP DP  RH WIND       PRES   REMARKS
BATESVILLE     CLEAR     73  70  88 CALM      29.96S
FLIPPIN        CLEAR     73  64  73 CALM      29.96S
MTN HOME       CLEAR     76  69  79 SE3       29.97S
$$

ARZ040-041-040600-
WEST CENTRAL ARKANSAS

CITY           SKY/WX    TMP DP  RH WIND       PRES   REMARKS
MENA           CLEAR     72  68  88 CALM      29.97S
MOUNT IDA      CLEAR     72  68  87 CALM      29.93F
$$

ARZ009-017-025-026-028-040600-
NORTHEAST ARKANSAS

CITY           SKY/WX    TMP DP  RH WIND       PRES   REMARKS
JONESBORO      CLEAR     70  70 100 CALM      29.95S
NEWPORT        CLEAR     76  73  90 CALM      29.96S
WALNUT RIDGE   CLEAR     75  66  73 CALM      29.95S
BLYTHEVILLE    CLEAR     76  73  91 CALM      29.95F
$$

ARZ022-023-033-042-044-040600-
CENTRAL ARKANSAS

CITY           SKY/WX    TMP DP  RH WIND       PRES   REMARKS
LITTLE ROCK    CLEAR     79  70  74 CALM      29.94S
N LITTLE ROCK  CLEAR     78  70  75 E2        29.94S
JACKSONVILLE   CLEAR     72  68  87 CALM      29.94S
SEARCY         CLEAR     73  70  90 N3        29.97R
HOT SPRINGS    CLEAR     78  69  73 CALM      29.94F
RUSSELLVILLE   CLEAR     75  69  81 CALM      29.93S
$$

ARZ036-040600-
EAST ARKANSAS

CITY           SKY/WX    TMP DP  RH WIND       PRES   REMARKS
WEST MEMPHIS   CLEAR     74  73  97 CALM      29.93F
$$

ARZ050-053-066-070-073-040600-
SOUTHWEST ARKANSAS

CITY           SKY/WX    TMP DP  RH WIND       PRES   REMARKS
ARKADELPHIA    FAIR      73  71  93 CALM      29.93S
CAMDEN         CLEAR     73  68  83 CALM      29.92S
TEXARKANA      CLEAR     78  69  73 CALM      29.92F
EL DORADO      CLEAR     75  69  81 CALM      29.92F
DE QUEEN       CLEAR     71  70  96 E3        29.91S
$$

ARZ056-057-069-040600-
SOUTHEAST ARKANSAS

CITY           SKY/WX    TMP DP  RH WIND       PRES   REMARKS
PINE BLUFF     CLEAR     75  70  84 CALM      29.93S
STUTTGART      CLEAR     75  66  73 CALM      29.94S
MONTICELLO     CLEAR     75  72  90 CALM      29.93S

$$




USA.gov is the U.S. government's official web portal to all federal, state and local government web resources and services.